Weather History for Jackson, MI

Change the Weather History Date:

Tuesday, April 23, 2013

  Actual Average Record
Temperature  
Mean Temperature 54 °F 51 °F  
Max Temperature 68 °F 62 °F 83 °F (1960)
Min Temperature 39 °F 40 °F 21 °F (1986)
Degree Days  
Heating Degree Days 11 15  
Month to date heating degree days 502 428  
Since 1 July heating degree days 6235 6252  
Cooling Degree Days 0 0  
Month to date cooling degree days 0 0  
Year to date cooling degree days 0 0  
Growing Degree Days 4 (Base 50)    
Moisture  
Dew Point 43 °F    
Average Humidity 66    
Maximum Humidity 93    
Minimum Humidity 39    
Precipitation  
Precipitation 0.51 in 0.09 in 0.96 in (1966)
Month to date precipitation 5.26 1.99  
Year to date precipitation 10.25 6.67  
Sea Level Pressure  
Sea Level Pressure 29.97 in    
Wind  
Wind Speed 11 mph (South)    
Max Wind Speed 24 mph    
Max Gust Speed 31 mph    
Visibility 8 miles    
Events Rain    
T = Trace of Precipitation, MM = Missing Value Source: NWS Daily Summary

Daily Weather History Graph

Daily Weather History Graph

Search for Another Location

Airport:

Trip Planner

Search our weather history database for the weather conditions in past years. The results will help you decide how hot, cold, wet, or windy it might be!

Date:

Astronomy

Apr. 23, 2013 Rise Set
Actual Time 6:44 AM EDT 8:28 PM EDT
Civil Twilight 6:14 AM EDT 8:58 PM EDT
Nautical Twilight 5:38 AM EDT 9:34 PM EDT
Astronomical Twilight 4:59 AM EDT 10:13 PM EDT
Moon 6:20 PM EDT (4/23) 5:14 AM EDT (4/23)
Length of Visible Light 14h 44m
Length of Day
13h 44m
Waxing Gibbous, 94% of the Moon is Illuminated
Apr 23
Waxing Gibbous
Apr 25
Full
May 2
Last Quarter
May 9
New
May 18
First Quarter

Hourly Weather History & Observations

Time (EDT) Temp. Windchill Dew Point Humidity Pressure Visibility Wind Dir Wind Speed Gust Speed Precip Events Conditions
12:56 AM 44.1 °F 39.0 °F 32.0 °F 63% 30.17 in 10.0 mi SE 9.2 mph - N/A   Clear
1:56 AM 42.1 °F 37.7 °F 33.1 °F 70% 30.16 in 10.0 mi SE 6.9 mph - N/A   Clear
2:56 AM 42.1 °F 37.7 °F 33.1 °F 70% 30.13 in 10.0 mi SE 6.9 mph - N/A   Clear
3:56 AM 41.0 °F 35.8 °F 34.0 °F 76% 30.12 in 10.0 mi SE 8.1 mph - N/A   Clear
4:56 AM 41.0 °F 36.4 °F 35.1 °F 79% 30.09 in 10.0 mi SSE 6.9 mph - N/A   Clear
5:56 AM 43.0 °F 37.7 °F 35.1 °F 74% 30.05 in 10.0 mi SSE 9.2 mph - N/A   Clear
6:56 AM 45.0 °F 39.3 °F 35.1 °F 68% 30.06 in 10.0 mi SSE 11.5 mph - N/A   Clear
7:56 AM 46.9 °F - 36.0 °F 66% 30.06 in 10.0 mi SSE 10.4 mph - N/A   Scattered Clouds
8:56 AM 52.0 °F - 37.0 °F 57% 30.06 in 10.0 mi South 9.2 mph - N/A   Clear
9:56 AM 57.9 °F - 39.9 °F 51% 30.05 in 10.0 mi South 9.2 mph - N/A   Partly Cloudy
10:56 AM 63.0 °F - 41.0 °F 45% 30.03 in 10.0 mi South 15.0 mph - N/A   Partly Cloudy
11:56 AM 63.0 °F - 39.9 °F 43% 30.02 in 10.0 mi SSW 17.3 mph 25.3 mph N/A   Partly Cloudy
12:56 PM 64.0 °F - 41.0 °F 43% 29.99 in 10.0 mi South 13.8 mph 20.7 mph N/A   Mostly Cloudy
1:56 PM 66.0 °F - 42.1 °F 42% 29.95 in 10.0 mi South 18.4 mph 26.5 mph N/A   Scattered Clouds
2:56 PM 66.9 °F - 43.0 °F 42% 29.92 in 10.0 mi South 19.6 mph 26.5 mph N/A   Mostly Cloudy
3:56 PM 68.0 °F - 42.1 °F 39% 29.89 in 10.0 mi South 16.1 mph 25.3 mph N/A   Mostly Cloudy
4:56 PM 64.9 °F - 45.0 °F 48% 29.88 in 10.0 mi South 18.4 mph 27.6 mph 0.00 in Rain Light Rain
5:56 PM 55.9 °F - 52.0 °F 87% 29.91 in 4.0 mi WSW 10.4 mph 20.7 mph 0.04 in Rain Light Rain
6:56 PM 55.9 °F - 53.1 °F 90% 29.88 in 6.0 mi SW 10.4 mph - 0.05 in   Overcast
7:56 PM 55.9 °F - 52.0 °F 87% 29.86 in 10.0 mi SSW 10.4 mph - 0.01 in   Overcast
8:56 PM 55.0 °F - 51.1 °F 86% 29.86 in 10.0 mi SSW 12.7 mph - 0.01 in Rain Light Rain
9:56 PM 54.0 °F - 51.1 °F 90% 29.85 in 5.0 mi SSW 6.9 mph - 0.03 in Rain Light Rain
10:56 PM 53.1 °F - 52.0 °F 96% 29.82 in 3.0 mi Calm Calm - 0.11 in Rain Rain
11:06 PM 53.6 °F - 51.8 °F 94% 29.82 in 2.5 mi Calm Calm - 0.02 in Rain Rain
11:25 PM 50.0 °F - 48.2 °F 94% 29.82 in 2.0 mi NNW 9.2 mph 18.4 mph 0.09 in Rain Rain
11:30 PM 48.2 °F - 48.2 °F 100% 29.82 in 3.0 mi NNW 10.4 mph 17.3 mph 0.10 in Rain Rain
11:56 PM 46.9 °F - 45.0 °F 93% 29.83 in 4.0 mi NNW 8.1 mph - 0.17 in Rain Rain